Preview of NWS' New Version of Forecast
This preview is not operational and should not be used for support decisions.

Regional Weather Roundup (RWR)

Issued by National Weather Service (NWS)

                            
000
ASUS42 KTBW 210916
RWRFL 
FLORIDA REGIONAL WEATHER ROUNDUP
NATIONAL WEATHER SERVICE TAMPA BAY RUSKIN FL
500 AM EDT TUE MAY 21 2019

NOTE: "FAIR" INDICATES FEW OR NO CLOUDS BELOW 12,000 FEET WITH NO
SIGNIFICANT WEATHER AND/OR OBSTRUCTIONS TO VISIBILITY.

FLZ001>010-012>015-112-114-115-211000-
PANHANDLE FLORIDA
  
CITY           SKY/WX    TMP DP  RH WIND       PRES   REMARKS
PENSACOLA      FAIR      73  73 100 CALM      29.90F                  
PENSACOLA NAS  FAIR      71  71 100 CALM      29.90F                  
MILTON NAS     FOG       65  65 100 CALM      29.91  VSB 1/2          
CRESTVIEW        N/A     67  65  93 MISG      29.94S                  
DUKE FIELD     FOG       64  64 100 CALM      29.92R VSB 5/8          
VALPARAISO     FAIR      70  69  98 CALM      29.91S                  
MARY ESTHER    PTCLDY    69  68  99 CALM      29.90S                  
PANAMA CITY    FOG       66  64  93 CALM      29.92S VSB 1/2          
TYNDALL AFB    FAIR      70  68  94 CALM      29.92S FOG              
APALACHICOLA   FAIR      66  62  87 CALM      29.92S                  

STATION/POSITION SKY/WX   TEMP    WIND        PRES    WAVE   SWELL
                          AIR SEA DIR/SP/G            HT/PER HT/PER
                          (F)     (DEG/KT/KT) (MB)    (FT/S) (FT/S)
30.1N   87.6W                                   N/A     2/ 6
29.2N   88.2W                     170/ 10/ 12 1012.6F   2/ 5   2/ 5
PANAMA CITY BEAC           77 80  190/  2/  3 1013.6R
TOWER C          NOT AVBL

$$
FLZ011-016>038-118-127-128-134-139-239-211000-
NORTH FLORIDA
  
CITY           SKY/WX    TMP DP  RH WIND       PRES   REMARKS
MARIANNA       FAIR      69  69 100 CALM      29.92S                  
TALLAHASSEE    FAIR      66  64  93 CALM      29.93S                  
PERRY          FAIR      65  63  93 CALM      29.94S                  
LIVE OAK       PTCLDY    64  64 100 CALM      29.93S                  
CROSS CITY     FAIR      65  60  85 CALM      29.95R                  
GAINESVILLE    MOCLDY    75  69  81 SW3       29.97S                  
WILLISTON      FAIR      67  65  90 S3        29.94F                  
PALATKA        FAIR     N/A N/A N/A S3        29.95R                  
MAYPORT NAS    FAIR      74  70  87 S10       29.94S                  
JACKSONVILLE   FAIR      70  68  93 CALM      29.93S                  
JAX NAS        MOCLDY    78  69  73 S10       29.95R                  
JAX CECIL      MOCLDY    70  68  94 CALM      29.94S                  
FERNANDINA BEA FAIR      74  71  91 S8        29.94S                  
ST AUGUSTINE   FAIR      73  70  90 S7        29.96S                  
PALM COAST     FAIR      70  68  95 S3        29.95S                  

STATION/POSITION SKY/WX   TEMP    WIND        PRES    WAVE   SWELL
                          AIR SEA DIR/SP/G            HT/PER HT/PER
                          (F)     (DEG/KT/KT) (MB)    (FT/S) (FT/S)
SHELL POINT      NOT AVBL
KEATON BEACH               70     130/  4/  5 1014.2R
CEDAR KEY                  81     190/  7/  8 1013.8R
FERNANDINA                 76 81  160/  4/  6 1014.5R
30.7N   81.3W                 79                N/A     3/ 4
MAYPORT                    74 81  190/  6/ 10 1014.1S
31.4N   80.9W              77 77  200/ 14/ 16 1013.8R   3/ 4   2/ 6
ST AUGUSTINE               74 80  190/  9/ 10 1014.4R

$$
FLZ040-043>046-052-053-057-058-063-144-211000-
INTERIOR CENTRAL FLORIDA
  
CITY           SKY/WX    TMP DP  RH WIND       PRES   REMARKS
OCALA          FAIR      74  70  87 S6        29.95S                  
LEESBURG       FAIR      75  70  84 S12       29.96S                  
SANFORD        FAIR      74  70  87 S6        29.95S                  
ORLANDO EXEC   FAIR      74  70  87 S5        29.96R                  
ORLANDO INTL   FAIR      72  69  90 S5        29.95F                  
KISSIMMEE      FAIR      73  70  90 S3        29.97S                  
WINTER HAVEN   FAIR      75  71  87 SE3       29.96F                  
LAKELAND       FAIR      72  68  88 CALM      29.96S                  
BARTOW         FAIR      70  68  94 CALM      29.95S                  
SEBRING        FAIR      69  68  96 N3        29.95S                  
OKEECHOBEE     FAIR      70  68  94 CALM      29.94F                  

$$
FLZ041-047-054-059-064-141-147-211000-
EAST CENTRAL FLORIDA
  
CITY           SKY/WX    TMP DP  RH WIND       PRES   REMARKS
DAYTONA BEACH  FAIR      71  71 100 S3        29.95F                  
DELAND         FAIR      72  70  94 S5        29.95S                  
JFK SPACE CTR  FAIR      69  67  94 CALM      29.95S                  
CAPE CANAVERAL FAIR      74  61  63 S5        29.94S                  
PATRICK AFB    FAIR      74  72  93 S7        29.95S                  
MELBOURNE      FAIR      74  68  81 SW3       29.95S                  
VERO BEACH     FAIR      68  65  90 CALM      29.94F                  
FT PIERCE      FAIR      67  64  90 CALM      29.94F                  
STUART         FAIR      72  66  83 CALM      29.95F                  

STATION/POSITION SKY/WX   TEMP    WIND        PRES    WAVE   SWELL
                          AIR SEA DIR/SP/G            HT/PER HT/PER
                          (F)     (DEG/KT/KT) (MB)    (FT/S) (FT/S)
28.5N   80.2W              78     170/ 10/ 12 1014.6
28.9N   78.5W              76 78  150/  6/  8 1014.9F   2/ 6   2/ 6
TRIDENT PIER               78 82  190/  6/  8 1015.4F
28.4N   80.5W                 80                N/A     2/ 3
27.5N   80.2W                 80                N/A     2/ 7

$$
FLZ050-056-061-142-242-148-248-149-249-151-251-155-255-
160-260-211000-
WEST CENTRAL FLORIDA
  
CITY           SKY/WX    TMP DP  RH WIND       PRES   REMARKS
CRYSTAL RIVER  FAIR      68  66  94 CALM      29.95S                  
INVERNESS      FAIR      72  72 100 CALM      29.96S                  
BROOKSVILLE    FAIR      71  68  90 E3        29.95F                  
CLEARWATER AIR FAIR      75  70  83 SE5       29.93S                  
ST PETE CLEARW FAIR      76  70  82 CALM      29.93S                  
TAMPA INTL     FAIR      77  70  79 E5        29.94S                  
TAMPA EXEC     FAIR      70  68  94 CALM      29.95S                  
PLANT CITY     FAIR      73  72  94 SE5       29.97S                  
MACDILL AFB    FAIR      76  70  83 SE8       29.93S                  
PETER O KNIGHT CLOUDY    75  73  94 E3        29.94S                  
ST PETERSBURG    N/A    N/A N/A N/A MISG        N/A                   
SARASOTA       FAIR      74  69  85 E5        29.91F                  
VENICE         FAIR      73  72  94 E6        29.93S                  

STATION/POSITION SKY/WX   TEMP    WIND        PRES    WAVE   SWELL
                          AIR SEA DIR/SP/G            HT/PER HT/PER
                          (F)     (DEG/KT/KT) (MB)    (FT/S) (FT/S)
27.3N   84.2W                 78                N/A     1/ 7
CLEARWATER BEACH           77 84  120/  6/  8 1013.6F
MIDDLE TAMPA BAY           75     140/ 10/ 11 1013.5F
VENICE                     74 82   70/  6/  8 1013.2F

$$
FLZ066-069-070-075>078-162-262-165-265-211000-
SOUTHWEST FLORIDA AND KEYS
  
CITY           SKY/WX    TMP DP  RH WIND       PRES   REMARKS
PUNTA GORDA    MOCLDY    72  69  90 E6        29.94F                  
FT MYERS       FAIR      73  71  93 E3        29.92F                  
SOUTHWEST INTL FAIR      72  69  90 E5        29.93S                  
NAPLES         CLOUDY    75  72  90 E6        29.92S                  
MARCO ISLAND   CLOUDY    75  73  93 E5        29.93F                  
IMMOKALEE      FAIR      68  66  94 CALM      29.92S                  
MARATHON       FAIR      82  70  66 SE8       29.91F                  
KEY WEST NAS   FAIR      81  69  67 SE7       29.91F                  
KEY WEST INTL  FAIR      80  70  71 SE7       29.91F                  

STATION/POSITION SKY/WX   TEMP    WIND        PRES    WAVE   SWELL
                          AIR SEA DIR/SP/G            HT/PER HT/PER
                          (F)     (DEG/KT/KT) (MB)    (FT/S) (FT/S)
NAPLES                     77 84              1013.2F
DRY TORTUGAS               80     160/  5/  6 1012.9F
SAND KEY                   80                 1012.8F
SOMBRERO KEY               80                 1012.3F

$$
FLZ067-068-071>074-168-172>174-211000-
SOUTHEAST FLORIDA 
  
CITY           SKY/WX    TMP DP  RH WIND       PRES   REMARKS
W PALM BEACH   FAIR      77  66  68 SE5       29.94F                  
FT LAUDER-EXEC FAIR      78  69  73 E7        29.92F                  
FT LAUDERDALE  FAIR      79  70  74 SE7       29.91F                  
POMPANO BEACH  FAIR      79  69  71 SE7       29.92F                  
PEMBROKE PINES FAIR      76  69  79 SE5       29.93F                  
OPA LOCKA      FAIR      75  69  81 CALM      29.93F                  
MIAMI          FAIR      78  69  73 SE3       29.93S                  
WEST KENDALL   FAIR      72  70  93 CALM      29.92F                  
HOMESTEAD      FAIR      78  72  80 SE5       29.91F                  

STATION/POSITION SKY/WX   TEMP    WIND        PRES    WAVE   SWELL
                          AIR SEA DIR/SP/G            HT/PER HT/PER
                          (F)     (DEG/KT/KT) (MB)    (FT/S) (FT/S)
PORT EVERGLADES            80     130/  6/  9 1013.3F
VIRGINIA KEY               80 85  110/  7/ 10 1012.7F
LAKE WORTH                 79 81              1014.6F
SETTLEMENT POINT           76     130/  5/  6 1014.0F

$$